Skip navigation

Daily Weather Reports

[Select Refresh to Update]


Yesterday's Data File


8/20/14
Time

Wind Dir
 

Wind Spd
mph

Wind Gust
mph

Hum In
%

Humidity
%

Temp In
 F

Temp
 F

Raw Barom
in

Tot Rain
in

DailyRain
in

HourRain
in

24HrRain
in

RainRate
in/hr
12:00am 201 0 3 40 78 81.5 65.8 29.91 0.64 0.00 0.00 0.00 0.000
12:01am 201 0 0 40 78 81.5 65.8 29.91 0.64 0.00 0.00 0.00 0.000
12:02am 201 0 0 40 79 81.4 65.9 29.91 0.64 0.00 0.00 0.00 0.000
12:03am 201 0 0 40 79 81.4 65.9 29.91 0.64 0.00 0.00 0.00 0.000
12:04am 201 0 0 40 79 81.4 65.9 29.91 0.64 0.00 0.00 0.00 0.000
12:05am 201 0 0 40 79 81.4 65.9 29.91 0.64 0.00 0.00 0.00 0.000
12:06am 201 2 2 40 79 81.4 65.9 29.91 0.64 0.00 0.00 0.00 0.000
12:07am 201 0 2 41 79 81.4 65.9 29.91 0.64 0.00 0.00 0.00 0.000
12:08am 201 0 2 41 79 81.4 65.9 29.91 0.64 0.00 0.00 0.00 0.000
12:09am 201 0 2 41 79 81.4 65.9 29.91 0.64 0.00 0.00 0.00 0.000
12:10am 201 1 2 41 79 81.4 65.9 29.91 0.64 0.00 0.00 0.00 0.000
12:11am 201 0 2 41 79 81.4 65.8 29.91 0.64 0.00 0.00 0.00 0.000
12:12am 201 0 2 41 79 81.4 65.8 29.91 0.64 0.00 0.00 0.00 0.000
12:13am 201 0 2 41 79 81.4 65.7 29.91 0.64 0.00 0.00 0.00 0.000
12:14am 201 0 2 41 79 81.4 65.7 29.91 0.64 0.00 0.00 0.00 0.000
12:15am 201 0 2 41 79 81.4 65.7 29.91 0.64 0.00 0.00 0.00 0.000
12:16am 201 0 0 41 79 81.4 65.7 29.91 0.64 0.00 0.00 0.00 0.000
12:17am 201 0 0 41 79 81.4 65.7 29.91 0.64 0.00 0.00 0.00 0.000
12:18am 201 0 0 41 79 81.4 65.7 29.91 0.64 0.00 0.00 0.00 0.000
12:19am 201 0 0 41 79 81.4 65.7 29.91 0.64 0.00 0.00 0.00 0.000
12:20am 201 0 0 41 79 81.2 65.6 29.91 0.64 0.00 0.00 0.00 0.000
12:21am 201 0 0 41 79 81.2 65.6 29.91 0.64 0.00 0.00 0.00 0.000
12:22am 201 0 0 41 79 81.2 65.6 29.91 0.64 0.00 0.00 0.00 0.000
12:23am 201 0 0 41 80 81.2 65.5 29.91 0.64 0.00 0.00 0.00 0.000
12:24am 201 0 0 41 80 81.2 65.5 29.91 0.64 0.00 0.00 0.00 0.000
12:25am 201 0 0 41 80 81.2 65.5 29.91 0.64 0.00 0.00 0.00 0.000
12:26am 201 0 1 41 80 81.2 65.4 29.91 0.64 0.00 0.00 0.00 0.000
12:27am 201 0 1 41 79 81.2 65.3 29.91 0.64 0.00 0.00 0.00 0.000
12:28am 201 0 1 41 79 81.2 65.3 29.91 0.64 0.00 0.00 0.00 0.000
12:29am 201 0 1 41 79 81.2 65.1 29.91 0.64 0.00 0.00 0.00 0.000
12:30am 201 0 1 41 79 81.2 65.0 29.91 0.64 0.00 0.00 0.00 0.000
12:31am 201 0 1 41 79 81.2 65.0 29.91 0.64 0.00 0.00 0.00 0.000
12:32am 201 0 1 41 79 81.2 64.9 29.91 0.64 0.00 0.00 0.00 0.000
12:33am 201 0 1 41 79 81.2 64.8 29.91 0.64 0.00 0.00 0.00 0.000
12:34am 201 1 1 41 79 81.2 64.8 29.91 0.64 0.00 0.00 0.00 0.000
12:35am 201 1 1 41 79 81.2 64.7 29.91 0.64 0.00 0.00 0.00 0.000
12:36am 201 0 1 41 79 81.2 64.6 29.91 0.64 0.00 0.00 0.00 0.000
12:37am 201 0 1 41 79 81.0 64.5 29.91 0.64 0.00 0.00 0.00 0.000
12:38am 201 0 1 41 79 81.0 64.5 29.91 0.64 0.00 0.00 0.00 0.000
12:39am 201 0 1 41 79 81.0 64.4 29.91 0.64 0.00 0.00 0.00 0.000
12:40am 201 0 1 41 79 81.0 64.4 29.91 0.64 0.00 0.00 0.00 0.000
12:41am 201 1 2 41 79 81.0 64.3 29.91 0.64 0.00 0.00 0.00 0.000
12:42am 201 1 2 41 79 81.0 64.3 29.91 0.64 0.00 0.00 0.00 0.000
12:43am 201 2 2 41 79 81.0 64.2 29.91 0.64 0.00 0.00 0.00 0.000
12:44am 201 2 2 41 79 81.0 64.2 29.91 0.64 0.00 0.00 0.00 0.000
12:45am 201 1 2 41 79 81.0 64.2 29.91 0.64 0.00 0.00 0.00 0.000
12:46am 201 0 2 41 79 81.0 64.1 29.91 0.64 0.00 0.00 0.00 0.000
12:47am 201 1 2 41 80 81.0 64.1 29.91 0.64 0.00 0.00 0.00 0.000
12:48am 201 2 3 41 79 81.0 64.0 29.91 0.64 0.00 0.00 0.00 0.000
12:48am 201 3 3 41 79 81.0 63.8 29.91 0.64 0.00 0.00 0.00 0.000
12:50am 201 1 3 41 79 81.0 63.7 29.91 0.64 0.00 0.00 0.00 0.000
12:51am 201 1 3 41 79 81.0 63.6 29.91 0.64 0.00 0.00 0.00 0.000
12:52am 201 0 3 41 79 81.0 63.5 29.91 0.64 0.00 0.00 0.00 0.000
12:53am 201 0 3 41 80 81.0 63.4 29.91 0.64 0.00 0.00 0.00 0.000
12:53am 201 0 3 41 80 81.0 63.4 29.92 0.64 0.00 0.00 0.00 0.000
12:55am 201 0 3 41 80 80.8 63.4 29.92 0.64 0.00 0.00 0.00 0.000
12:56am 201 0 3 41 80 80.8 63.4 29.92 0.64 0.00 0.00 0.00 0.000
12:57am 201 0 3 41 80 80.8 63.4 29.92 0.64 0.00 0.00 0.00 0.000
12:58am 201 1 3 41 80 80.8 63.3 29.92 0.64 0.00 0.00 0.00 0.000
12:59am 201 0 3 41 80 80.8 63.3 29.92 0.64 0.00 0.00 0.00 0.000
1:00am 201 0 3 41 80 80.8 63.3 29.92 0.64 0.00 0.00 0.00 0.000
1:01am 201 0 1 41 81 80.8 63.3 29.91 0.64 0.00 0.00 0.00 0.000
1:02am 201 0 1 41 81 80.8 63.4 29.91 0.64 0.00 0.00 0.00 0.000
1:03am 201 0 1 41 81 80.8 63.4 29.91 0.64 0.00 0.00 0.00 0.000
1:04am 201 0 1 41 81 80.8 63.4 29.91 0.64 0.00 0.00 0.00 0.000
1:05am 201 0 1 41 81 80.8 63.5 29.91 0.64 0.00 0.00 0.00 0.000
1:05am 201 0 1 41 81 80.8 63.5 29.91 0.64 0.00 0.00 0.00 0.000
1:07am 201 0 1 41 81 80.8 63.5 29.91 0.64 0.00 0.00 0.00 0.000
1:08am 201 0 1 41 81 80.8 63.5 29.91 0.64 0.00 0.00 0.00 0.000
1:09am 201 0 1 41 81 80.8 63.6 29.91 0.64 0.00 0.00 0.00 0.000
1:10am 201 0 1 41 81 80.8 63.5 29.91 0.64 0.00 0.00 0.00 0.000
1:10am 201 0 1 41 81 80.8 63.5 29.91 0.64 0.00 0.00 0.00 0.000
1:12am 201 1 1 41 81 80.8 63.5 29.91 0.64 0.00 0.00 0.00 0.000
1:13am 201 0 1 41 81 80.6 63.6 29.91 0.64 0.00 0.00 0.00 0.000
1:14am 201 0 2 41 81 80.6 63.6 29.91 0.64 0.00 0.00 0.00 0.000
1:15am 201 0 2 41 81 80.6 63.5 29.91 0.64 0.00 0.00 0.00 0.000
1:16am 201 1 1 41 81 80.6 63.5 29.91 0.64 0.00 0.00 0.00 0.000
1:17am 201 0 1 41 81 80.6 63.4 29.91 0.64 0.00 0.00 0.00 0.000
1:18am 201 0 1 41 81 80.6 63.4 29.91 0.64 0.00 0.00 0.00 0.000
1:19am 201 0 1 41 81 80.6 63.4 29.91 0.64 0.00 0.00 0.00 0.000
1:20am 201 0 1 41 81 80.6 63.4 29.91 0.64 0.00 0.00 0.00 0.000
1:21am 201 0 1 41 81 80.6 63.4 29.90 0.64 0.00 0.00 0.00 0.000
1:22am 201 2 2 41 81 80.6 63.4 29.90 0.64 0.00 0.00 0.00 0.000
1:23am 201 1 2 41 81 80.6 63.4 29.90 0.64 0.00 0.00 0.00 0.000
1:24am 201 2 2 41 81 80.6 63.3 29.90 0.64 0.00 0.00 0.00 0.000
1:25am 201 1 2 41 81 80.6 63.3 29.90 0.64 0.00 0.00 0.00 0.000
1:26am 201 2 2 41 82 80.6 63.4 29.90 0.64 0.00 0.00 0.00 0.000
1:27am 201 1 2 41 82 80.6 63.4 29.90 0.64 0.00 0.00 0.00 0.000
1:28am 201 1 2 41 82 80.6 63.4 29.90 0.64 0.00 0.00 0.00 0.000
1:29am 201 1 2 41 82 80.6 63.3 29.90 0.64 0.00 0.00 0.00 0.000
1:30am 201 2 2 41 82 80.6 63.3 29.90 0.64 0.00 0.00 0.00 0.000
1:31am 201 1 2 41 82 80.4 63.2 29.90 0.64 0.00 0.00 0.00 0.000
1:32am 201 1 2 41 81 80.4 63.1 29.90 0.64 0.00 0.00 0.00 0.000
1:33am 201 0 2 41 81 80.4 63.0 29.90 0.64 0.00 0.00 0.00 0.000
1:33am 201 0 2 41 81 80.4 62.9 29.90 0.64 0.00 0.00 0.00 0.000
1:35am 201 0 2 41 81 80.4 62.8 29.90 0.64 0.00 0.00 0.00 0.000
1:36am 201 0 2 41 81 80.4 62.8 29.90 0.64 0.00 0.00 0.00 0.000
1:37am 201 0 2 41 81 80.4 62.7 29.90 0.64 0.00 0.00 0.00 0.000
1:38am 201 0 2 41 81 80.4 62.6 29.90 0.64 0.00 0.00 0.00 0.000
1:39am 201 0 2 41 82 80.4 62.7 29.90 0.64 0.00 0.00 0.00 0.000
1:40am 201 0 2 41 82 80.4 62.7 29.90 0.64 0.00 0.00 0.00 0.000
1:41am 201 0 2 41 82 80.4 62.7 29.90 0.64 0.00 0.00 0.00 0.000
1:42am 201 0 2 41 82 80.4 62.8 29.90 0.64 0.00 0.00 0.00 0.000
1:43am 201 0 2 41 82 80.4 62.9 29.90 0.64 0.00 0.00 0.00 0.000
1:44am 201 0 2 41 82 80.4 62.9 29.90 0.64 0.00 0.00 0.00 0.000
1:45am 201 0 2 41 82 80.4 63.0 29.90 0.64 0.00 0.00 0.00 0.000
1:46am 201 0 0 41 82 80.4 63.1 29.90 0.64 0.00 0.00 0.00 0.000
1:47am 201 0 0 41 82 80.2 63.1 29.90 0.64 0.00 0.00 0.00 0.000
1:48am 201 0 0 41 82 80.2 63.2 29.90 0.64 0.00 0.00 0.00 0.000
1:49am 201 0 0 41 82 80.2 63.2 29.90 0.64 0.00 0.00 0.00 0.000
1:50am 201 0 0 41 82 80.2 63.2 29.90 0.64 0.00 0.00 0.00 0.000
1:51am 201 0 0 41 82 80.2 63.2 29.90 0.64 0.00 0.00 0.00 0.000
1:52am 201 0 0 41 82 80.2 63.1 29.90 0.64 0.00 0.00 0.00 0.000
1:53am 201 0 1 41 82 80.2 63.0 29.90 0.64 0.00 0.00 0.00 0.000
1:54am 201 0 1 41 82 80.2 63.0 29.90 0.64 0.00 0.00 0.00 0.000
1:55am 201 0 1 41 82 80.2 62.9 29.90 0.64 0.00 0.00 0.00 0.000
1:56am 201 0 1 41 82 80.2 62.9 29.90 0.64 0.00 0.00 0.00 0.000
1:57am 201 0 1 41 82 80.2 62.8 29.90 0.64 0.00 0.00 0.00 0.000
1:58am 201 0 1 41 82 80.2 62.8 29.90 0.64 0.00 0.00 0.00 0.000
1:59am 201 0 1 41 82 80.2 62.7 29.90 0.64 0.00 0.00 0.00 0.000
2:00am 201 0 1 41 82 80.2 62.7 29.90 0.64 0.00 0.00 0.00 0.000
2:01am 201 0 0 41 82 80.2 62.6 29.90 0.64 0.00 0.00 0.00 0.000
2:02am 201 0 0 41 82 80.2 62.6 29.90 0.64 0.00 0.00 0.00 0.000
2:03am 201 0 0 41 82 80.2 62.7 29.90 0.64 0.00 0.00 0.00 0.000
2:04am 201 0 0 41 82 80.2 62.7 29.91 0.64 0.00 0.00 0.00 0.000
2:05am 201 0 0 41 82 80.1 62.8 29.91 0.64 0.00 0.00 0.00 0.000
2:05am 201 0 0 41 83 80.1 62.8 29.91 0.64 0.00 0.00 0.00 0.000
2:07am 201 0 0 41 82 80.1 62.8 29.91 0.64 0.00 0.00 0.00 0.000
2:08am 201 0 0 41 82 80.1 62.9 29.91 0.64 0.00 0.00 0.00 0.000
2:09am 201 0 0 41 82 80.1 62.9 29.91 0.64 0.00 0.00 0.00 0.000
2:09am 201 0 0 41 82 80.1 62.9 29.91 0.64 0.00 0.00 0.00 0.000
2:11am 201 0 0 41 82 80.1 62.9 29.91 0.64 0.00 0.00 0.00 0.000
2:12am 201 0 0 41 82 80.1 63.0 29.91 0.64 0.00 0.00 0.00 0.000
2:13am 201 0 0 41 82 80.1 63.0 29.91 0.64 0.00 0.00 0.00 0.000
2:14am 201 0 0 41 82 80.1 63.2 29.91 0.64 0.00 0.00 0.00 0.000
2:15am 201 0 0 41 83 80.1 63.2 29.91 0.64 0.00 0.00 0.00 0.000
2:16am 201 0 0 41 83 80.1 63.3 29.91 0.64 0.00 0.00 0.00 0.000
2:17am 201 0 0 41 83 80.1 63.3 29.91 0.64 0.00 0.00 0.00 0.000
2:18am 201 0 1 41 83 80.1 63.4 29.91 0.64 0.00 0.00 0.00 0.000
2:19am 201 0 1 41 83 80.1 63.5 29.92 0.64 0.00 0.00 0.00 0.000
2:20am 201 1 1 41 83 80.1 63.6 29.91 0.64 0.00 0.00 0.00 0.000
2:21am 201 0 1 41 83 80.1 63.7 29.91 0.64 0.00 0.00 0.00 0.000
2:22am 201 0 1 41 83 79.9 63.8 29.91 0.64 0.00 0.00 0.00 0.000
2:23am 201 0 1 41 83 79.9 63.9 29.92 0.64 0.00 0.00 0.00 0.000
2:24am 201 0 1 41 83 79.9 64.0 29.91 0.64 0.00 0.00 0.00 0.000
2:25am 201 0 1 41 83 79.9 64.1 29.92 0.64 0.00 0.00 0.00 0.000
2:26am 201 0 1 41 83 79.9 64.1 29.92 0.64 0.00 0.00 0.00 0.000
2:27am 201 0 1 41 83 79.9 64.1 29.92 0.64 0.00 0.00 0.00 0.000
2:28am 201 0 1 41 83 79.9 64.2 29.92 0.64 0.00 0.00 0.00 0.000
2:29am 201 0 1 41 82 79.9 64.2 29.92 0.64 0.00 0.00 0.00 0.000
2:30am 201 0 1 41 82 79.9 64.2 29.92 0.64 0.00 0.00 0.00 0.000
2:31am 201 0 0 41 82 79.9 64.2 29.92 0.64 0.00 0.00 0.00 0.000
2:32am 201 0 0 41 82 79.9 64.3 29.92 0.64 0.00 0.00 0.00 0.000
2:33am 201 0 0 41 82 79.9 64.3 29.92 0.64 0.00 0.00 0.00 0.000
2:34am 201 0 0 41 82 79.9 64.3 29.92 0.64 0.00 0.00 0.00 0.000
2:35am 201 0 0 41 82 79.9 64.3 29.92 0.64 0.00 0.00 0.00 0.000
2:36am 201 1 1 41 82 79.9 64.3 29.92 0.64 0.00 0.00 0.00 0.000
2:37am 201 1 1 41 82 79.9 64.3 29.92 0.64 0.00 0.00 0.00 0.000
2:38am 201 0 1 41 82 79.9 64.3 29.92 0.64 0.00 0.00 0.00 0.000
2:39am 201 1 2 41 82 79.9 64.3 29.92 0.64 0.00 0.00 0.00 0.000
2:39am 201 1 2 41 82 79.9 64.3 29.92 0.64 0.00 0.00 0.00 0.000
2:41am 201 0 2 41 82 79.7 64.4 29.92 0.64 0.00 0.00 0.00 0.000
2:42am 201 0 2 41 82 79.7 64.3 29.92 0.64 0.00 0.00 0.00 0.000
2:43am 201 1 2 41 82 79.7 64.3 29.92 0.64 0.00 0.00 0.00 0.000
2:44am 201 0 2 41 82 79.7 64.3 29.92 0.64 0.00 0.00 0.00 0.000
2:45am 201 0 2 41 82 79.7 64.2 29.92 0.64 0.00 0.00 0.00 0.000
2:46am 201 0 0 41 82 79.7 64.2 29.91 0.64 0.00 0.00 0.00 0.000
2:47am 201 0 0 41 82 79.7 64.2 29.91 0.64 0.00 0.00 0.00 0.000
2:48am 201 0 0 41 82 79.7 64.2 29.92 0.64 0.00 0.00 0.00 0.000
2:49am 201 0 0 41 82 79.7 64.2 29.92 0.64 0.00 0.00 0.00 0.000
2:50am 201 0 0 41 82 79.7 64.2 29.92 0.64 0.00 0.00 0.00 0.000
2:51am 201 0 0 41 82 79.7 64.3 29.92 0.64 0.00 0.00 0.00 0.000
2:52am 201 0 0 41 82 79.7 64.3 29.92 0.64 0.00 0.00 0.00 0.000
2:53am 201 0 0 41 82 79.7 64.4 29.92 0.64 0.00 0.00 0.00 0.000
2:54am 201 0 0 41 82 79.7 64.4 29.92 0.64 0.00 0.00 0.00 0.000
2:55am 201 0 0 42 82 79.7 64.3 29.92 0.64 0.00 0.00 0.00 0.000
2:56am 201 0 0 41 82 79.7 64.3 29.92 0.64 0.00 0.00 0.00 0.000
2:57am 201 0 0 42 82 79.7 64.3 29.91 0.64 0.00 0.00 0.00 0.000
2:58am 201 0 0 42 82 79.7 64.3 29.92 0.64 0.00 0.00 0.00 0.000
2:59am 201 0 0 42 82 79.7 64.3 29.92 0.64 0.00 0.00 0.00 0.000
3:00am 201 0 0 42 82 79.5 64.2 29.92 0.64 0.00 0.00 0.00 0.000
3:01am 201 0 0 42 82 79.5 64.2 29.92 0.64 0.00 0.00 0.00 0.000
3:02am 201 1 1 42 82 79.5 64.2 29.92 0.64 0.00 0.00 0.00 0.000
3:03am 201 0 1 42 82 79.5 64.1 29.92 0.64 0.00 0.00 0.00 0.000
3:04am 201 2 2 42 82 79.5 63.9 29.92 0.64 0.00 0.00 0.00 0.000
3:05am 201 2 3 42 82 79.5 63.9 29.91 0.64 0.00 0.00 0.00 0.000
3:06am 201 3 4 42 81 79.5 63.7 29.91 0.64 0.00 0.00 0.00 0.000
3:07am 201 2 4 42 81 79.5 63.5 29.91 0.64 0.00 0.00 0.00 0.000
3:08am 201 1 4 42 81 79.5 63.4 29.91 0.64 0.00 0.00 0.00 0.000
3:09am 201 0 4 42 82 79.5 63.2 29.91 0.64 0.00 0.00 0.00 0.000
3:09am 201 1 4 42 82 79.5 63.1 29.91 0.64 0.00 0.00 0.00 0.000
3:11am 201 0 4 42 82 79.5 63.0 29.92 0.64 0.00 0.00 0.00 0.000
3:12am 201 0 4 42 82 79.5 62.9 29.92 0.64 0.00 0.00 0.00 0.000
3:13am 201 0 4 42 82 79.5 62.9 29.92 0.64 0.00 0.00 0.00 0.000
3:14am 201 0 4 42 82 79.5 62.8 29.92 0.64 0.00 0.00 0.00 0.000
3:15am 201 0 4 42 82 79.5 62.8 29.92 0.64 0.00 0.00 0.00 0.000
3:16am 201 0 0 42 82 79.5 62.8 29.92 0.64 0.00 0.00 0.00 0.000
3:16am 201 0 0 42 82 79.5 62.7 29.92 0.64 0.00 0.00 0.00 0.000
3:18am 201 0 0 42 82 79.5 62.7 29.92 0.64 0.00 0.00 0.00 0.000
3:19am 201 0 0 42 83 79.5 62.8 29.92 0.64 0.00 0.00 0.00 0.000
3:20am 201 0 0 42 83 79.5 62.8 29.92 0.64 0.00 0.00 0.00 0.000
3:21am 201 0 0 42 83 79.5 62.8 29.92 0.64 0.00 0.00 0.00 0.000
3:22am 201 0 0 42 83 79.3 62.8 29.92 0.64 0.00 0.00 0.00 0.000
3:23am 201 0 0 42 83 79.3 62.8 29.92 0.64 0.00 0.00 0.00 0.000
3:24am 201 0 0 42 83 79.3 62.9 29.92 0.64 0.00 0.00 0.00 0.000
3:25am 201 0 0 42 83 79.3 62.9 29.92 0.64 0.00 0.00 0.00 0.000
3:25am 201 0 0 42 83 79.3 63.0 29.92 0.64 0.00 0.00 0.00 0.000
3:27am 201 0 0 42 83 79.3 63.0 29.92 0.64 0.00 0.00 0.00 0.000
3:28am 201 0 0 42 83 79.3 63.0 29.92 0.64 0.00 0.00 0.00 0.000
3:29am 201 0 0 42 83 79.3 63.1 29.92 0.64 0.00 0.00 0.00 0.000
3:30am 201 0 0 42 83 79.3 63.2 29.92 0.64 0.00 0.00 0.00 0.000
3:31am 201 0 0 42 83 79.3 63.2 29.92 0.64 0.00 0.00 0.00 0.000
3:32am 201 0 0 42 83 79.3 63.3 29.92 0.64 0.00 0.00 0.00 0.000
3:33am 201 0 0 42 83 79.3 63.4 29.92 0.64 0.00 0.00 0.00 0.000
3:34am 201 0 0 42 83 79.3 63.4 29.92 0.64 0.00 0.00 0.00 0.000
3:35am 201 0 0 42 84 79.3 63.5 29.92 0.64 0.00 0.00 0.00 0.000
3:36am 201 1 2 42 84 79.3 63.5 29.92 0.64 0.00 0.00 0.00 0.000
3:37am 201 2 2 42 84 79.3 63.6 29.92 0.64 0.00 0.00 0.00 0.000
3:38am 201 0 2 42 84 79.3 63.6 29.92 0.64 0.00 0.00 0.00 0.000
3:39am 201 0 2 42 84 79.3 63.7 29.92 0.64 0.00 0.00 0.00 0.000
3:40am 201 0 2 42 84 79.3 63.7 29.92 0.64 0.00 0.00 0.00 0.000
3:41am 201 0 2 42 84 79.3 63.7 29.92 0.64 0.00 0.00 0.00 0.000
3:42am 201 0 2 42 84 79.3 63.8 29.92 0.64 0.00 0.00 0.00 0.000
3:43am 201 0 2 42 84 79.3 63.8 29.92 0.64 0.00 0.00 0.00 0.000
3:44am 201 0 2 42 84 79.3 63.8 29.92 0.64 0.00 0.00 0.00 0.000
3:45am 201 1 2 42 83 79.3 63.8 29.92 0.64 0.00 0.00 0.00 0.000
3:46am 201 0 1 42 83 79.1 63.8 29.92 0.64 0.00 0.00 0.00 0.000
3:47am 88 2 3 42 83 79.1 63.7 29.92 0.64 0.00 0.00 0.00 0.000
3:48am 88 2 3 42 83 79.1 63.7 29.92 0.64 0.00 0.00 0.00 0.000
3:49am 88 1 3 42 83 79.1 63.6 29.92 0.64 0.00 0.00 0.00 0.000
3:50am 88 1 3 42 83 79.1 63.5 29.92 0.64 0.00 0.00 0.00 0.000
3:51am 88 2 3 42 83 79.1 63.5 29.92 0.64 0.00 0.00 0.00 0.000
3:52am 78 1 3 42 83 79.1 63.4 29.92 0.64 0.00 0.00 0.00 0.000
3:53am 78 2 3 42 83 79.1 63.4 29.92 0.64 0.00 0.00 0.00 0.000
3:53am 78 3 3 42 83 79.1 63.3 29.92 0.64 0.00 0.00 0.00 0.000
3:55am 59 1 3 42 83 79.1 63.2 29.92 0.64 0.00 0.00 0.00 0.000
3:56am 44 1 3 42 83 79.1 63.1 29.91 0.64 0.00 0.00 0.00 0.000
3:57am 44 1 3 42 83 79.1 63.0 29.91 0.64 0.00 0.00 0.00 0.000
3:58am 43 0 3 42 83 79.1 62.9 29.91 0.64 0.00 0.00 0.00 0.000
3:59am 44 0 3 42 83 79.1 62.9 29.91 0.64 0.00 0.00 0.00 0.000
4:00am 44 0 3 42 83 79.1 62.8 29.91 0.64 0.00 0.00 0.00 0.000
4:01am 44 0 0 42 83 79.1 62.8 29.92 0.64 0.00 0.00 0.00 0.000
4:02am 44 0 1 42 83 79.1 62.8 29.92 0.64 0.00 0.00 0.00 0.000
4:03am 44 0 1 42 83 79.1 62.8 29.92 0.64 0.00 0.00 0.00 0.000
4:04am 43 0 1 42 83 79.1 62.7 29.92 0.64 0.00 0.00 0.00 0.000
4:05am 43 0 1 42 83 79.1 62.7 29.92 0.64 0.00 0.00 0.00 0.000
4:06am 43 0 1 42 83 79.1 62.7 29.92 0.64 0.00 0.00 0.00 0.000
4:07am 43 0 1 42 84 79.1 62.7 29.92 0.64 0.00 0.00 0.00 0.000
4:08am 44 0 1 42 83 79.1 62.7 29.92 0.64 0.00 0.00 0.00 0.000
4:09am 44 0 1 42 84 79.1 62.6 29.92 0.64 0.00 0.00 0.00 0.000
4:10am 44 0 1 42 84 79.1 62.7 29.92 0.64 0.00 0.00 0.00 0.000
4:11am 44 0 1 42 84 78.9 62.7 29.92 0.64 0.00 0.00 0.00 0.000
4:12am 44 0 1 42 84 78.9 62.7 29.92 0.64 0.00 0.00 0.00 0.000
4:13am 43 0 1 42 84 78.9 62.8 29.92 0.64 0.00 0.00 0.00 0.000
4:14am 43 0 1 42 84 78.9 62.8 29.92 0.64 0.00 0.00 0.00 0.000
4:15am 44 0 1 42 84 78.9 62.8 29.92 0.64 0.00 0.00 0.00 0.000
4:16am 44 1 1 42 84 78.9 62.8 29.92 0.64 0.00 0.00 0.00 0.000
4:17am 169 4 4 42 84 78.9 62.9 29.92 0.64 0.00 0.00 0.00 0.000
4:18am 184 3 4 42 84 78.9 63.0 29.92 0.64 0.00 0.00 0.00 0.000
4:19am 186 3 4 42 84 78.9 63.0 29.92 0.64 0.00 0.00 0.00 0.000
4:20am 186 1 4 42 84 78.9 63.1 29.92 0.64 0.00 0.00 0.00 0.000
4:21am 186 0 4 42 84 78.9 63.1 29.92 0.64 0.00 0.00 0.00 0.000
4:22am 186 0 4 42 84 78.9 63.1 29.92 0.64 0.00 0.00 0.00 0.000
4:23am 186 0 4 42 84 78.9 63.2 29.92 0.64 0.00 0.00 0.00 0.000
4:24am 186 0 4 42 84 78.9 63.2 29.92 0.64 0.00 0.00 0.00 0.000
4:25am 186 0 4 42 84 78.9 63.2 29.93 0.64 0.00 0.00 0.00 0.000
4:26am 186 0 4 42 84 78.9 63.2 29.93 0.64 0.00 0.00 0.00 0.000
4:27am 186 1 4 42 84 78.9 63.2 29.93 0.64 0.00 0.00 0.00 0.000
4:28am 186 0 4 42 84 78.9 63.3 29.93 0.64 0.00 0.00 0.00 0.000
4:29am 184 2 4 42 84 78.9 63.3 29.93 0.64 0.00 0.00 0.00 0.000
4:30am 181 1 4 42 84 78.9 63.3 29.93 0.64 0.00 0.00 0.00 0.000
4:31am 181 0 1 42 84 78.9 63.3 29.93 0.64 0.00 0.00 0.00 0.000
4:32am 176 1 2 42 84 78.8 63.2 29.93 0.64 0.00 0.00 0.00 0.000
4:33am 168 1 2 42 84 78.8 63.1 29.93 0.64 0.00 0.00 0.00 0.000
4:34am 167 1 2 42 84 78.8 63.0 29.93 0.64 0.00 0.00 0.00 0.000
4:35am 161 1 2 42 84 78.8 63.0 29.93 0.64 0.00 0.00 0.00 0.000
4:36am 161 1 2 42 84 78.8 63.0 29.93 0.64 0.00 0.00 0.00 0.000
4:37am 161 1 2 42 84 78.8 62.9 29.93 0.64 0.00 0.00 0.00 0.000
4:38am 161 0 2 42 84 78.8 62.9 29.93 0.64 0.00 0.00 0.00 0.000
4:39am 160 1 2 42 84 78.8 62.8 29.93 0.64 0.00 0.00 0.00 0.000
4:40am 160 1 2 42 84 78.8 62.8 29.93 0.64 0.00 0.00 0.00 0.000
4:41am 159 0 2 42 84 78.8 62.8 29.92 0.64 0.00 0.00 0.00 0.000
4:41am 159 1 2 42 84 78.8 62.8 29.92 0.64 0.00 0.00 0.00 0.000
4:43am 159 1 2 42 84 78.8 62.8 29.92 0.64 0.00 0.00 0.00 0.000
4:43am 157 2 2 42 84 78.8 62.8 29.92 0.64 0.00 0.00 0.00 0.000
4:45am 158 0 2 42 84 78.8 62.8 29.92 0.64 0.00 0.00 0.00 0.000
4:45am 157 1 1 42 84 78.8 62.8 29.92 0.64 0.00 0.00 0.00 0.000
4:47am 157 2 2 42 84 78.8 62.7 29.92 0.64 0.00 0.00 0.00 0.000
4:48am 156 2 3 42 84 78.8 62.7 29.92 0.64 0.00 0.00 0.00 0.000
4:49am 156 3 3 42 84 78.8 62.6 29.92 0.64 0.00 0.00 0.00 0.000
4:50am 155 2 3 42 84 78.8 62.6 29.91 0.64 0.00 0.00 0.00 0.000
4:51am 10 4 4 42 84 78.8 62.5 29.91 0.64 0.00 0.00 0.00 0.000
4:52am 9 4 4 42 84 78.6 62.5 29.91 0.64 0.00 0.00 0.00 0.000
4:53am 352 2 4 42 84 78.6 62.4 29.91 0.64 0.00 0.00 0.00 0.000
4:54am 355 3 4 42 84 78.6 62.4 29.91 0.64 0.00 0.00 0.00 0.000
4:55am 355 4 5 42 84 78.6 62.4 29.91 0.64 0.00 0.00 0.00 0.000
4:56am 355 3 5 42 84 78.6 62.4 29.91 0.64 0.00 0.00 0.00 0.000
4:57am 357 2 5 42 85 78.6 62.5 29.91 0.64 0.00 0.00 0.00 0.000
4:58am 356 1 5 42 85 78.6 62.5 29.91 0.64 0.00 0.00 0.00 0.000
4:59am 356 1 5 42 85 78.6 62.5 29.91 0.64 0.00 0.00 0.00 0.000
5:00am 356 0 5 42 85 78.6 62.6 29.91 0.64 0.00 0.00 0.00 0.000
5:01am 356 0 0 42 85 78.6 62.7 29.91 0.64 0.00 0.00 0.00 0.000
5:02am 354 2 3 42 85 78.6 62.8 29.91 0.64 0.00 0.00 0.00 0.000
5:03am 352 0 3 42 85 78.6 62.9 29.91 0.64 0.00 0.00 0.00 0.000
5:04am 352 0 3 42 85 78.6 62.9 29.91 0.64 0.00 0.00 0.00 0.000
5:05am 352 0 3 42 85 78.6 63.0 29.91 0.64 0.00 0.00 0.00 0.000
5:06am 352 0 3 42 85 78.6 63.0 29.91 0.64 0.00 0.00 0.00 0.000
5:07am 329 1 3 42 85 78.6 63.0 29.91 0.64 0.00 0.00 0.00 0.000
5:08am 323 2 3 42 85 78.6 63.1 29.91 0.64 0.00 0.00 0.00 0.000
5:09am 324 0 3 42 85 78.6 63.1 29.91 0.64 0.00 0.00 0.00 0.000
5:09am 324 0 3 42 85 78.6 63.1 29.91 0.64 0.00 0.00 0.00 0.000
5:11am 324 0 3 42 85 78.6 63.1 29.91 0.64 0.00 0.00 0.00 0.000
5:12am 323 0 3 42 85 78.6 63.1 29.91 0.64 0.00 0.00 0.00 0.000
5:13am 324 0 3 42 85 78.6 63.1 29.92 0.64 0.00 0.00 0.00 0.000
5:14am 314 2 3 42 85 78.6 63.1 29.92 0.64 0.00 0.00 0.00 0.000
5:15am 313 0 3 42 85 78.6 63.1 29.92 0.64 0.00 0.00 0.00 0.000
5:16am 313 0 1 42 85 78.4 63.1 29.92 0.64 0.00 0.00 0.00 0.000
5:17am 313 1 1 42 85 78.4 63.1 29.92 0.64 0.00 0.00 0.00 0.000
5:18am 313 2 2 42 85 78.4 63.1 29.92 0.64 0.00 0.00 0.00 0.000
5:19am 295 2 3 42 85 78.4 63.2 29.92 0.64 0.00 0.00 0.00 0.000
5:20am 295 0 3 43 85 78.4 63.2 29.92 0.64 0.00 0.00 0.00 0.000
5:21am 295 0 3 43 85 78.4 63.2 29.92 0.64 0.00 0.00 0.00 0.000
5:22am 295 0 3 43 85 78.4 63.2 29.92 0.64 0.00 0.00 0.00 0.000
5:23am 295 0 3 43 85 78.4 63.2 29.92 0.64 0.00 0.00 0.00 0.000
5:24am 295 0 3 43 85 78.4 63.1 29.92 0.64 0.00 0.00 0.00 0.000
5:25am 295 0 3 43 85 78.4 63.1 29.92 0.64 0.00 0.00 0.00 0.000
5:26am 295 0 3 43 85 78.4 63.1 29.92 0.64 0.00 0.00 0.00 0.000
5:27am 295 0 3 43 85 78.4 63.1 29.92 0.64 0.00 0.00 0.00 0.000
5:28am 295 0 3 43 85 78.4 63.1 29.92 0.64 0.00 0.00 0.00 0.000
5:29am 264 3 3 43 85 78.4 63.1 29.92 0.64 0.00 0.00 0.00 0.000
5:30am 190 1 3 43 85 78.4 63.1 29.93 0.64 0.00 0.00 0.00 0.000
5:31am 176 3 4 43 85 78.4 63.0 29.93 0.64 0.00 0.00 0.00 0.000
5:32am 175 1 4 43 85 78.4 63.0 29.93 0.64 0.00 0.00 0.00 0.000
5:33am 175 0 4 43 85 78.4 62.9 29.94 0.64 0.00 0.00 0.00 0.000
5:34am 175 0 4 43 85 78.4 62.9 29.94 0.64 0.00 0.00 0.00 0.000
5:35am 175 0 4 43 87 78.4 62.9 29.94 0.64 0.00 0.00 0.00 0.000
5:36am 107 3 4 43 85 78.4 62.8 29.94 0.64 0.00 0.00 0.00 0.000
5:37am 95 2 4 43 85 78.4 62.8 29.94 0.64 0.00 0.00 0.00 0.000
5:38am 87 4 6 43 85 78.4 62.8 29.93 0.64 0.00 0.00 0.00 0.000
5:39am 99 3 6 43 85 78.2 62.8 29.93 0.64 0.00 0.00 0.00 0.000
5:40am 88 4 6 43 85 78.2 62.8 29.94 0.64 0.00 0.00 0.00 0.000
5:41am 96 5 6 43 85 78.2 62.8 29.94 0.64 0.00 0.00 0.00 0.000
5:41am 93 2 6 43 85 78.2 62.8 29.94 0.64 0.00 0.00 0.00 0.000
5:43am 65 4 6 43 85 78.2 62.8 29.94 0.64 0.00 0.00 0.00 0.000
5:44am 57 4 6 43 85 78.2 62.8 29.94 0.64 0.00 0.00 0.00 0.000
5:45am 51 2 6 43 85 78.2 62.7 29.94 0.64 0.00 0.00 0.00 0.000
5:46am 50 3 4 43 85 78.2 62.6 29.93 0.64 0.00 0.00 0.00 0.000
5:47am 51 2 4 43 85 78.2 62.6 29.93 0.64 0.00 0.00 0.00 0.000
5:48am 49 3 4 43 85 78.2 62.6 29.93 0.64 0.00 0.00 0.00 0.000
5:49am 55 3 4 43 85 78.2 62.6 29.93 0.64 0.00 0.00 0.00 0.000
5:50am 55 3 4 43 85 78.2 62.6 29.93 0.64 0.00 0.00 0.00 0.000
5:51am 55 1 4 43 85 78.2 62.5 29.93 0.64 0.00 0.00 0.00 0.000
5:52am 55 1 4 43 85 78.2 62.5 29.93 0.64 0.00 0.00 0.00 0.000
5:53am 55 0 4 43 85 78.2 62.5 29.93 0.64 0.00 0.00 0.00 0.000
5:53am 55 0 4 43 85 78.2 62.5 29.93 0.64 0.00 0.00 0.00 0.000
5:55am 55 0 4 43 85 78.2 62.5 29.93 0.64 0.00 0.00 0.00 0.000
5:56am 55 1 4 43 85 78.2 62.6 29.93 0.64 0.00 0.00 0.00 0.000
5:57am 68 1 4 43 85 78.2 62.6 29.93 0.64 0.00 0.00 0.00 0.000
5:58am 73 1 4 43 85 78.2 62.6 29.93 0.64 0.00 0.00 0.00 0.000
5:59am 165 3 4 43 85 78.2 62.6 29.93 0.64 0.00 0.00 0.00 0.000
6:00am 165 2 4 43 85 78.2 62.6 29.94 0.64 0.00 0.00 0.00 0.000
6:01am 165 0 2 43 85 78.2 62.6 29.94 0.64 0.00 0.00 0.00 0.000
6:02am 164 1 4 43 85 78.2 62.6 29.94 0.64 0.00 0.00 0.00 0.000
6:03am 165 2 4 43 85 78.2 62.7 29.94 0.64 0.00 0.00 0.00 0.000
6:04am 164 2 4 43 85 78.2 62.7 29.94 0.64 0.00 0.00 0.00 0.000
6:05am 165 1 4 43 85 78.2 62.7 29.94 0.64 0.00 0.00 0.00 0.000
6:06am 165 0 4 43 85 78.2 62.7 29.94 0.64 0.00 0.00 0.00 0.000
6:07am 165 0 4 43 85 78.2 62.8 29.94 0.64 0.00 0.00 0.00 0.000
6:08am 165 0 4 43 85 78.2 62.8 29.94 0.64 0.00 0.00 0.00 0.000
6:09am 165 0 4 43 85 78.1 62.8 29.93 0.64 0.00 0.00 0.00 0.000
6:10am 165 0 4 43 85 78.1 62.8 29.93 0.64 0.00 0.00 0.00 0.000
6:11am 17 4 4 43 85 78.1 62.8 29.93 0.64 0.00 0.00 0.00 0.000
6:12am 20 4 4 43 85 78.1 62.7 29.93 0.64 0.00 0.00 0.00 0.000
6:13am 0 4 4 43 85 78.1 62.6 29.93 0.64 0.00 0.00 0.00 0.000
6:14am 0 4 4 43 85 78.1 62.4 29.93 0.64 0.00 0.00 0.00 0.000
6:15am 1 2 4 43 85 78.1 62.2 29.93 0.64 0.00 0.00 0.00 0.000
6:16am 0 2 3 43 85 78.1 62.1 29.93 0.64 0.00 0.00 0.00 0.000
6:17am 0 1 3 43 84 78.1 61.9 29.93 0.64 0.00 0.00 0.00 0.000
6:18am 1 0 3 43 85 78.1 61.8 29.93 0.64 0.00 0.00 0.00 0.000
6:19am 1 0 3 43 85 78.1 61.6 29.93 0.64 0.00 0.00 0.00 0.000
6:20am 1 0 3 43 85 78.1 61.6 29.94 0.64 0.00 0.00 0.00 0.000
6:21am 1 0 3 43 85 78.1 61.5 29.94 0.64 0.00 0.00 0.00 0.000
6:22am 0 0 3 43 85 78.1 61.5 29.94 0.64 0.00 0.00 0.00 0.000
6:23am 1 0 3 43 85 78.1 61.6 29.94 0.64 0.00 0.00 0.00 0.000
6:24am 1 0 3 43 85 78.1 61.6 29.94 0.64 0.00 0.00 0.00 0.000
6:25am 1 3 3 43 85 78.1 61.8 29.94 0.64 0.00 0.00 0.00 0.000
6:26am 1 3 3 43 86 78.1 61.9 29.94 0.64 0.00 0.00 0.00 0.000
6:27am 1 1 3 43 86 78.1 62.0 29.94 0.64 0.00 0.00 0.00 0.000
6:28am 1 0 3 43 86 78.1 62.1 29.94 0.64 0.00 0.00 0.00 0.000
6:29am 1 0 3 43 86 78.1 62.2 29.94 0.64 0.00 0.00 0.00 0.000
6:30am 0 0 3 43 86 78.1 62.3 29.94 0.64 0.00 0.00 0.00 0.000
6:31am 1 2 3 43 86 78.1 62.2 29.94 0.64 0.00 0.00 0.00 0.000
6:32am 1 3 4 43 85 78.1 61.9 29.94 0.64 0.00 0.00 0.00 0.000
6:33am 1 3 4 43 85 78.1 61.7 29.94 0.64 0.00 0.00 0.00 0.000
6:34am 1 3 4 43 85 78.1 61.6 29.94 0.64 0.00 0.00 0.00 0.000
6:35am 1 3 4 43 85 78.1 61.7 29.94 0.64 0.00 0.00 0.00 0.000
6:36am 0 1 4 43 85 78.1 61.8 29.94 0.64 0.00 0.00 0.00 0.000
6:37am 0 0 4 43 85 78.1 61.9 29.94 0.64 0.00 0.00 0.00 0.000
6:38am 1 0 4 43 86 78.1 62.1 29.94 0.64 0.00 0.00 0.00 0.000
6:39am 1 1 4 43 86 78.1 62.2 29.94 0.64 0.00 0.00 0.00 0.000
6:40am 1 0 4 43 86 78.1 62.3 29.94 0.64 0.00 0.00 0.00 0.000
6:41am 1 0 4 43 86 77.9 62.3 29.94 0.64 0.00 0.00 0.00 0.000
6:42am 1 2 4 43 86 77.9 62.4 29.94 0.64 0.00 0.00 0.00 0.000
6:43am 228 3 4 43 86 77.9 62.4 29.95 0.64 0.00 0.00 0.00 0.000
6:44am 222 2 4 43 86 77.9 62.4 29.95 0.64 0.00 0.00 0.00 0.000
6:45am 221 2 4 43 86 77.9 62.4 29.95 0.64 0.00 0.00 0.00 0.000
6:46am 214 4 4 43 86 77.9 62.5 29.95 0.64 0.00 0.00 0.00 0.000
6:47am 205 4 4 43 86 77.9 62.5 29.95 0.64 0.00 0.00 0.00 0.000
6:48am 201 3 6 43 86 77.9 62.5 29.95 0.64 0.00 0.00 0.00 0.000
6:49am 198 1 6 43 86 77.9 62.6 29.95 0.64 0.00 0.00 0.00 0.000
6:50am 197 2 6 43 86 77.9 62.6 29.95 0.64 0.00 0.00 0.00 0.000
6:51am 197 0 6 43 86 77.9 62.6 29.95 0.64 0.00 0.00 0.00 0.000
6:52am 197 2 6 43 86 77.9 62.7 29.95 0.64 0.00 0.00 0.00 0.000
6:53am 197 0 6 43 86 77.9 62.7 29.95 0.64 0.00 0.00 0.00 0.000
6:54am 197 0 6 43 86 77.9 62.7 29.95 0.64 0.00 0.00 0.00 0.000
6:55am 197 1 6 43 86 77.9 62.8 29.95 0.64 0.00 0.00 0.00 0.000
6:56am 197 2 6 43 86 77.9 62.8 29.95 0.64 0.00 0.00 0.00 0.000
6:57am 153 1 6 43 86 77.9 62.8 29.95 0.64 0.00 0.00 0.00 0.000
6:57am 139 3 6 43 86 77.9 62.8 29.95 0.64 0.00 0.00 0.00 0.000
6:59am 82 3 6 43 85 77.9 62.7 29.95 0.64 0.00 0.00 0.00 0.000
7:00am 82 3 6 43 85 77.9 62.7 29.95 0.64 0.00 0.00 0.00 0.000
7:01am 82 0 3 43 85 77.9 62.7 29.96 0.64 0.00 0.00 0.00 0.000
7:02am 81 0 3 43 85 77.9 62.7 29.96 0.64 0.00 0.00 0.00 0.000
7:03am 82 0 3 43 85 77.9 62.7 29.95 0.64 0.00 0.00 0.00 0.000
7:04am 82 0 3 43 85 77.9 62.7 29.95 0.64 0.00 0.00 0.00 0.000
7:05am 81 0 3 43 85 77.9 62.8 29.95 0.64 0.00 0.00 0.00 0.000
7:05am 82 0 3 43 85 77.9 62.8 29.95 0.64 0.00 0.00 0.00 0.000
7:07am 81 1 3 43 85 77.9 62.9 29.95 0.64 0.00 0.00 0.00 0.000
7:08am 82 1 3 43 85 77.9 62.8 29.95 0.64 0.00 0.00 0.00 0.000
7:09am 82 0 3 43 85 77.9 62.8 29.95 0.64 0.00 0.00 0.00 0.000
7:10am 82 1 3 43 85 77.9 62.8 29.95 0.64 0.00 0.00 0.00 0.000
7:11am 82 0 3 43 85 77.9 62.8 29.95 0.64 0.00 0.00 0.00 0.000
7:12am 82 0 3 43 85 77.9 62.8 29.95 0.64 0.00 0.00 0.00 0.000
7:13am 82 0 3 43 85 77.9 62.8 29.95 0.64 0.00 0.00 0.00 0.000
7:14am 81 0 3 43 85 77.9 62.8 29.94 0.64 0.00 0.00 0.00 0.000
7:15am 82 0 3 43 85 77.9 62.9 29.94 0.64 0.00 0.00 0.00 0.000
7:16am 82 0 0 43 85 77.7 62.9 29.94 0.64 0.00 0.00 0.00 0.000
7:17am 81 0 0 43 85 77.7 62.9 29.94 0.64 0.00 0.00 0.00 0.000
7:18am 81 0 0 43 85 77.7 63.0 29.94 0.64 0.00 0.00 0.00 0.000
7:19am 82 0 0 43 85 77.7 63.0 29.94 0.64 0.00 0.00 0.00 0.000
7:19am 82 0 1 43 85 77.7 63.0 29.94 0.64 0.00 0.00 0.00 0.000
7:21am 81 0 1 43 85 77.7 63.1 29.94 0.64 0.00 0.00 0.00 0.000
7:22am 82 1 1 43 85 77.7 63.1 29.94 0.64 0.00 0.00 0.00 0.000
7:23am 82 0 1 43 85 77.7 63.1 29.94 0.64 0.00 0.00 0.00 0.000
7:24am 81 0 1 43 85 77.7 63.2 29.94 0.64 0.00 0.00 0.00 0.000
7:25am 81 0 1 43 85 77.7 63.2 29.93 0.64 0.00 0.00 0.00 0.000
7:25am 81 0 1 43 85 77.7 63.2 29.93 0.64 0.00 0.00 0.00 0.000
7:27am 82 0 1 43 85 77.7 63.3 29.93 0.64 0.00 0.00 0.00 0.000
7:28am 82 0 1 43 85 77.7 63.3 29.93 0.64 0.00 0.00 0.00 0.000
7:29am 82 0 1 43 85 77.7 63.3 29.93 0.64 0.00 0.00 0.00 0.000
7:30am 82 0 1 43 85 77.7 63.4 29.93 0.64 0.00 0.00 0.00 0.000
7:31am 82 0 0 43 85 77.7 63.4 29.93 0.64 0.00 0.00 0.00 0.000
7:32am 81 0 1 43 85 77.7 63.3 29.93 0.64 0.00 0.00 0.00 0.000
7:33am 81 0 1 43 85 77.7 63.4 29.93 0.64 0.00 0.00 0.00 0.000
7:34am 82 0 1 43 85 77.7 63.4 29.94 0.64 0.00 0.00 0.00 0.000
7:35am 82 0 1 43 85 77.7 63.4 29.94 0.64 0.00 0.00 0.00 0.000
7:36am 82 0 1 43 85 77.7 63.4 29.94 0.64 0.00 0.00 0.00 0.000
7:37am 82 0 1 43 85 77.7 63.4 29.94 0.64 0.00 0.00 0.00 0.000
7:38am 82 0 1 43 85 77.7 63.4 29.94 0.64 0.00 0.00 0.00 0.000
7:39am 81 0 1 43 85 77.7 63.4 29.94 0.64 0.00 0.00 0.00 0.000
7:40am 82 0 1 43 85 77.7 63.4 29.94 0.64 0.00 0.00 0.00 0.000
7:41am 82 0 1 43 85 77.7 63.5 29.94 0.64 0.00 0.00 0.00 0.000
7:42am 82 0 1 43 84 77.7 63.5 29.94 0.64 0.00 0.00 0.00 0.000
7:43am 83 1 1 43 84 77.7 63.6 29.94 0.64 0.00 0.00 0.00 0.000
7:44am 83 0 1 43 85 77.7 63.7 29.94 0.64 0.00 0.00 0.00 0.000
7:45am 82 0 1 43 85 77.7 63.8 29.94 0.64 0.00 0.00 0.00 0.000
7:46am 82 0 1 43 85 77.7 63.9 29.94 0.64 0.00 0.00 0.00 0.000
7:47am 83 1 1 43 84 77.7 63.9 29.95 0.64 0.00 0.00 0.00 0.000
7:47am 83 0 1 43 84 77.7 64.0 29.95 0.64 0.00 0.00 0.00 0.000
7:49am 83 0 1 43 84 77.7 64.1 29.95 0.64 0.00 0.00 0.00 0.000
7:50am 83 1 2 43 84 77.7 64.2 29.95 0.64 0.00 0.00 0.00 0.000
7:51am 83 0 2 43 84 77.7 64.3 29.95 0.64 0.00 0.00 0.00 0.000
7:52am 82 0 2 43 84 77.7 64.4 29.95 0.64 0.00 0.00 0.00 0.000
7:53am 82 0 2 43 84 77.7 64.4 29.96 0.64 0.00 0.00 0.00 0.000
7:54am 83 2 2 43 83 77.7 64.5 29.96 0.64 0.00 0.00 0.00 0.000
7:55am 82 2 2 43 83 77.7 64.6 29.96 0.64 0.00 0.00 0.00 0.000
7:56am 83 0 2 44 83 77.7 64.7 29.96 0.64 0.00 0.00 0.00 0.000
7:57am 82 1 3 44 83 77.7 64.8 29.96 0.64 0.00 0.00 0.00 0.000
7:58am 82 0 3 44 83 77.7 64.9 29.96 0.64 0.00 0.00 0.00 0.000
7:59am 81 2 3 44 83 77.7 65.0 29.96 0.64 0.00 0.00 0.00 0.000
8:00am 78 2 3 44 82 77.7 65.1 29.96 0.64 0.00 0.00 0.00 0.000
8:01am 78 1 2 44 82 77.7 65.1 29.97 0.64 0.00 0.00 0.00 0.000
8:02am 80 2 2 44 82 77.7 65.3 29.97 0.64 0.00 0.00 0.00 0.000
8:03am 92 4 6 44 82 77.7 65.4 29.97 0.64 0.00 0.00 0.00 0.000
8:04am 136 2 6 44 81 77.7 65.4 29.97 0.64 0.00 0.00 0.00 0.000
8:05am 113 3 6 44 81 77.7 65.5 29.97 0.64 0.00 0.00 0.00 0.000
8:06am 88 2 6 44 81 77.7 65.5 29.97 0.64 0.00 0.00 0.00 0.000
8:07am 86 4 6 44 80 77.7 65.5 29.97 0.64 0.00 0.00 0.00 0.000
8:08am 88 2 6 44 80 77.7 65.5 29.97 0.64 0.00 0.00 0.00 0.000
8:09am 88 1 6 44 80 77.7 65.5 29.97 0.64 0.00 0.00 0.00 0.000
8:10am 88 0 6 44 80 77.7 65.5 29.97 0.64 0.00 0.00 0.00 0.000
8:11am 88 0 6 44 80 77.7 65.5 29.97 0.64 0.00 0.00 0.00 0.000
8:11am 88 0 6 44 80 77.7 65.6 29.97 0.64 0.00 0.00 0.00 0.000
8:13am 88 3 6 44 80 77.7 65.6 29.97 0.64 0.00 0.00 0.00 0.000
8:14am 93 0 6 44 80 77.7 65.7 29.97 0.64 0.00 0.00 0.00 0.000
8:15am 248 0 6 44 80 77.7 65.7 29.97 0.64 0.00 0.00 0.00 0.000
8:16am 59 2 4 44 80 77.9 65.7 29.97 0.64 0.00 0.00 0.00 0.000
8:17am 62 5 5 44 80 77.9 65.7 29.97 0.64 0.00 0.00 0.00 0.000
8:18am 72 4 5 44 80 77.9 65.7 29.97 0.64 0.00 0.00 0.00 0.000
8:19am 76 2 5 44 80 77.9 65.6 29.97 0.64 0.00 0.00 0.00 0.000
8:20am 76 1 5 44 80 77.9 65.6 29.97 0.64 0.00 0.00 0.00 0.000
8:21am 76 1 5 44 80 77.9 65.6 29.97 0.64 0.00 0.00 0.00 0.000
8:22am 76 0 5 44 79 77.9 65.6 29.97 0.64 0.00 0.00 0.00 0.000
8:23am 156 2 5 44 79 77.9 65.6 29.97 0.64 0.00 0.00 0.00 0.000
8:24am 183 4 5 44 79 77.9 65.6 29.97 0.64 0.00 0.00 0.00 0.000
8:25am 186 3 5 44 80 77.9 65.7 29.97 0.64 0.00 0.00 0.00 0.000
8:26am 188 2 5 44 80 77.9 65.7 29.97 0.64 0.00 0.00 0.00 0.000
8:27am 203 3 5 44 80 77.9 65.7 29.97 0.64 0.00 0.00 0.00 0.000
8:28am 205 3 5 44 80 77.9 65.9 29.97 0.64 0.00 0.00 0.00 0.000
8:29am 205 0 5 44 80 77.9 65.9 29.97 0.64 0.00 0.00 0.00 0.000
8:30am 205 4 5 44 80 77.9 66.1 29.97 0.64 0.00 0.00 0.00 0.000
8:31am 197 4 6 44 80 77.9 66.2 29.97 0.64 0.00 0.00 0.00 0.000
8:32am 217 1 6 44 80 78.1 66.2 29.97 0.64 0.00 0.00 0.00 0.000
8:33am 206 3 6 44 80 78.1 66.2 29.97 0.64 0.00 0.00 0.00 0.000
8:34am 203 4 6 44 79 78.1 66.2 29.97 0.64 0.00 0.00 0.00 0.000
8:35am 203 2 6 44 79 78.1 66.1 29.97 0.64 0.00 0.00 0.00 0.000
8:36am 203 2 6 44 79 78.1 66.1 29.97 0.64 0.00 0.00 0.00 0.000
8:37am 203 1 6 44 79 78.1 66.1 29.97 0.64 0.00 0.00 0.00 0.000
8:38am 203 1 6 44 79 78.1 66.1 29.97 0.64 0.00 0.00 0.00 0.000
8:39am 203 0 6 44 79 78.1 66.1 29.97 0.64 0.00 0.00 0.00 0.000
8:40am 202 0 6 44 79 78.1 66.2 29.97 0.64 0.00 0.00 0.00 0.000
8:41am 203 0 6 44 80 78.1 66.2 29.97 0.64 0.00 0.00 0.00 0.000
8:42am 202 0 6 44 80 78.1 66.4 29.98 0.64 0.00 0.00 0.00 0.000
8:43am 202 0 6 44 79 78.1 66.6 29.98 0.64 0.00 0.00 0.00 0.000
8:44am 203 0 6 44 80 78.1 66.8 29.98 0.64 0.00 0.00 0.00 0.000
8:45am 203 3 6 44 79 78.1 66.9 29.98 0.64 0.00 0.00 0.00 0.000
8:46am 203 2 3 44 79 78.2 66.9 29.98 0.64 0.00 0.00 0.00 0.000
8:47am 202 1 3 44 78 78.2 66.9 29.98 0.64 0.00 0.00 0.00 0.000
8:48am 202 1 3 44 78 78.2 67.0 29.98 0.64 0.00 0.00 0.00 0.000
8:49am 202 3 3 44 77 78.2 67.0 29.98 0.64 0.00 0.00 0.00 0.000
8:50am 203 0 3 44 77 78.2 67.0 29.98 0.64 0.00 0.00 0.00 0.000
8:51am 203 2 3 44 78 78.2 67.1 29.98 0.64 0.00 0.00 0.00 0.000
8:52am 203 0 3 44 78 78.2 67.3 29.98 0.64 0.00 0.00 0.00 0.000
8:53am 202 1 3 44 78 78.2 67.5 29.98 0.64 0.00 0.00 0.00 0.000
8:54am 202 2 3 44 78 78.2 67.6 29.98 0.64 0.00 0.00 0.00 0.000
8:55am 202 0 3 44 76 78.2 67.5 29.97 0.64 0.00 0.00 0.00 0.000
8:56am 203 0 3 44 76 78.2 67.5 29.97 0.64 0.00 0.00 0.00 0.000
8:57am 203 0 3 44 76 78.2 67.5 29.97 0.64 0.00 0.00 0.00 0.000
8:58am 203 0 3 44 76 78.2 67.7 29.97 0.64 0.00 0.00 0.00 0.000
8:59am 203 0 3 44 76 78.4 67.9 29.97 0.64 0.00 0.00 0.00 0.000
9:00am 203 0 3 44 76 78.4 68.0 29.97 0.64 0.00 0.00 0.00 0.000
9:01am 202 0 0 44 76 78.4 68.2 29.98 0.64 0.00 0.00 0.00 0.000
9:02am 203 0 1 44 76 78.4 68.5 29.98 0.64 0.00 0.00 0.00 0.000
9:03am 321 3 3 44 75 78.4 68.6 29.97 0.64 0.00 0.00 0.00 0.000
9:04am 322 2 4 44 74 78.4 68.7 29.97 0.64 0.00 0.00 0.00 0.000
9:05am 338 4 4 44 74 78.4 68.6 29.97 0.64 0.00 0.00 0.00 0.000
9:06am 340 2 5 44 73 78.4 68.6 29.97 0.64 0.00 0.00 0.00 0.000
9:07am 340 1 5 44 73 78.4 68.5 29.97 0.64 0.00 0.00 0.00 0.000
9:08am 340 1 5 44 73 78.6 68.5 29.97 0.64 0.00 0.00 0.00 0.000
9:09am 340 0 5 44 73 78.6 68.5 29.97 0.64 0.00 0.00 0.00 0.000
9:10am 340 0 5 44 73 78.6 68.6 29.97 0.64 0.00 0.00 0.00 0.000
9:11am 340 0 5 44 73 78.6 68.6 29.97 0.64 0.00 0.00 0.00 0.000
9:11am 340 0 5 44 73 78.6 68.7 29.97 0.64 0.00 0.00 0.00 0.000
9:13am 340 0 5 44 73 78.6 68.7 29.97 0.64 0.00 0.00 0.00 0.000
9:14am 330 1 5 44 73 78.6 68.9 29.97 0.64 0.00 0.00 0.00 0.000
9:15am 329 0 5 44 72 78.8 69.0 29.97 0.64 0.00 0.00 0.00 0.000
9:16am 330 0 0 44 72 78.8 69.1 29.97 0.64 0.00 0.00 0.00 0.000
9:17am 325 1 1 44 71 78.8 69.4 29.97 0.64 0.00 0.00 0.00 0.000
9:18am 289 0 3 43 71 78.8 69.5 29.97 0.64 0.00 0.00 0.00 0.000
9:19am 286 1 3 43 71 78.8 69.6 29.97 0.64 0.00 0.00 0.00 0.000
9:20am 279 1 3 43 70 78.8 69.6 29.97 0.64 0.00 0.00 0.00 0.000
9:21am 278 0 3 43 70 78.8 69.6 29.97 0.64 0.00 0.00 0.00 0.000
9:22am 234 2 3 43 70 78.8 69.6 29.97 0.64 0.00 0.00 0.00 0.000
9:23am 234 0 3 43 70 78.9 69.6 29.97 0.64 0.00 0.00 0.00 0.000
9:24am 238 1 3 43 70 78.9 69.7 29.96 0.64 0.00 0.00 0.00 0.000
9:25am 338 0 3 43 70 78.9 69.9 29.96 0.64 0.00 0.00 0.00 0.000
9:26am 338 0 3 43 70 78.9 70.0 29.96 0.64 0.00 0.00 0.00 0.000
9:27am 336 1 3 43 70 78.9 70.2 29.96 0.64 0.00 0.00 0.00 0.000
9:28am 336 0 3 43 69 78.9 70.5 29.97 0.64 0.00 0.00 0.00 0.000
9:29am 326 4 5 43 69 78.9 70.7 29.96 0.64 0.00 0.00 0.00 0.000
9:30am 344 3 5 43 67 78.9 70.8 29.97 0.64 0.00 0.00 0.00 0.000
9:31am 344 0 3 43 67 78.9 70.8 29.97 0.64 0.00 0.00 0.00 0.000
9:32am 344 0 3 43 66 79.1 70.9 29.97 0.64 0.00 0.00 0.00 0.000
9:33am 344 0 3 43 66 79.1 70.9 29.97 0.64 0.00 0.00 0.00 0.000
9:34am 344 0 3 44 65 79.1 71.0 29.97 0.64 0.00 0.00 0.00 0.000
9:35am 344 0 3 44 64 79.1 71.0 29.97 0.64 0.00 0.00 0.00 0.000
9:36am 344 0 3 44 64 79.1 71.1 29.97 0.64 0.00 0.00 0.00 0.000
9:37am 205 4 4 44 64 79.1 71.3 29.97 0.64 0.00 0.00 0.00 0.000
9:38am 212 1 4 44 64 79.3 71.4 29.97 0.64 0.00 0.00 0.00 0.000
9:39am 203 4 4 43 64 79.3 71.5 29.97 0.64 0.00 0.00 0.00 0.000
9:40am 198 3 5 43 64 79.3 71.4 29.98 0.64 0.00 0.00 0.00 0.000
9:41am 236 4 5 43 64 79.3 71.4 29.98 0.64 0.00 0.00 0.00 0.000
9:42am 203 4 5 43 64 79.3 71.4 29.98 0.64 0.00 0.00 0.00 0.000
9:43am 199 3 5 43 62 79.5 71.2 29.98 0.64 0.00 0.00 0.00 0.000
9:44am 178 3 5 43 62 79.5 71.1 29.98 0.64 0.00 0.00 0.00 0.000
9:45am 178 1 5 43 62 79.5 71.1 29.98 0.64 0.00 0.00 0.00 0.000
9:46am 201 3 4 43 63 79.5 71.1 29.98 0.64 0.00 0.00 0.00 0.000
9:47am 201 2 4 43 64 79.5 71.0 29.98 0.64 0.00 0.00 0.00 0.000
9:48am 123 1 4 43 64 79.5 71.0 29.98 0.64 0.00 0.00 0.00 0.000
9:49am 128 1 4 43 64 79.5 71.0 29.98 0.64 0.00 0.00 0.00 0.000
9:50am 176 2 4 43 63 79.7 71.0 29.99 0.64 0.00 0.00 0.00 0.000
9:51am 174 3 4 43 63 79.7 71.1 29.99 0.64 0.00 0.00 0.00 0.000
9:52am 153 4 6 43 63 79.7 71.3 29.99 0.64 0.00 0.00 0.00 0.000
9:53am 163 3 6 43 62 79.7 71.4 29.99 0.64 0.00 0.00 0.00 0.000
9:54am 133 3 7 43 61 79.7 71.6 29.99 0.64 0.00 0.00 0.00 0.000
9:55am 171 2 7 43 61 79.9 71.6 29.98 0.64 0.00 0.00 0.00 0.000
9:56am 163 3 7 43 62 79.9 71.7 29.98 0.64 0.00 0.00 0.00 0.000
9:57am 168 3 7 43 62 79.9 71.8 29.99 0.64 0.00 0.00 0.00 0.000
9:58am 167 3 7 43 63 79.9 72.0 29.98 0.64 0.00 0.00 0.00 0.000
9:59am 168 2 7 43 63 79.9 72.1 29.98 0.64 0.00 0.00 0.00 0.000
10:00am 158 3 7 43 64 79.9 72.2 29.98 0.64 0.00 0.00 0.00 0.000
10:01am 156 4 5 43 64 80.1 72.2 29.99 0.64 0.00 0.00 0.00 0.000
10:02am 147 5 6 43 64 80.1 72.2 29.99 0.64 0.00 0.00 0.00 0.000
10:03am 166 3 6 43 64 80.1 72.2 29.99 0.64 0.00 0.00 0.00 0.000
10:03am 147 4 6 43 64 80.1 72.2 29.99 0.64 0.00 0.00 0.00 0.000
10:05am 156 1 6 43 64 80.1 72.3 29.99 0.64 0.00 0.00 0.00 0.000
10:06am 185 5 6 43 65 80.1 72.4 29.99 0.64 0.00 0.00 0.00 0.000
10:07am 194 6 6 43 64 80.2 72.3 29.99 0.64 0.00 0.00 0.00 0.000
10:08am 196 2 6 43 64 80.2 72.2 29.99 0.64 0.00 0.00 0.00 0.000
10:09am 186 2 6 43 65 80.2 72.1 29.99 0.64 0.00 0.00 0.00 0.000
10:10am 206 3 6 43 65 80.2 72.0 29.99 0.64 0.00 0.00 0.00 0.000
10:11am 192 3 6 43 65 80.2 72.0 29.99 0.64 0.00 0.00 0.00 0.000
10:12am 193 4 6 43 65 80.2 72.0 29.99 0.64 0.00 0.00 0.00 0.000
10:13am 215 2 6 43 65 80.4 72.1 29.99 0.64 0.00 0.00 0.00 0.000
10:14am 215 1 6 43 65 80.4 72.1 29.99 0.64 0.00 0.00 0.00 0.000
10:15am 215 0 6 43 65 80.4 72.3 29.99 0.64 0.00 0.00 0.00 0.000
10:16am 214 0 1 43 64 80.4 72.5 29.99 0.64 0.00 0.00 0.00 0.000
10:17am 214 0 1 43 65 80.4 72.7 29.99 0.64 0.00 0.00 0.00 0.000
10:18am 215 0 1 43 64 80.4 72.9 29.98 0.64 0.00 0.00 0.00 0.000
10:19am 276 2 3 43 64 80.6 73.1 29.98 0.64 0.00 0.00 0.00 0.000
10:20am 261 2 3 43 63 80.6 73.3 29.98 0.64 0.00 0.00 0.00 0.000
10:21am 260 1 3 43 63 80.6 73.6 29.98 0.64 0.00 0.00 0.00 0.000
10:22am 196 4 5 43 62 80.6 73.7 29.97 0.64 0.00 0.00 0.00 0.000
10:23am 224 3 5 43 61 80.6 73.5 29.97 0.64 0.00 0.00 0.00 0.000
10:24am 191 3 5 43 61 80.6 73.4 29.97 0.64 0.00 0.00 0.00 0.000
10:25am 193 3 5 43 61 80.6 73.3 29.98 0.64 0.00 0.00 0.00 0.000
10:26am 184 3 5 43 61 80.6 73.2 29.98 0.64 0.00 0.00 0.00 0.000
10:27am 187 1 5 43 61 80.8 73.1 29.98 0.64 0.00 0.00 0.00 0.000
10:28am 183 0 5 43 61 80.8 73.1 29.98 0.64 0.00 0.00 0.00 0.000
10:29am 91 1 5 43 62 80.8 73.1 29.98 0.64 0.00 0.00 0.00 0.000
10:30am 22 0 5 43 62 80.8 73.3 29.97 0.64 0.00 0.00 0.00 0.000
10:31am 22 0 0 43 62 80.8 73.4 29.97 0.64 0.00 0.00 0.00 0.000
10:32am 22 0 1 43 62 80.8 73.6 29.97 0.64 0.00 0.00 0.00 0.000
10:33am 299 0 2 43 62 81.0 74.2 29.97 0.64 0.00 0.00 0.00 0.000
10:34am 300 0 3 43 60 81.0 74.5 29.97 0.64 0.00 0.00 0.00 0.000
10:35am 298 0 3 43 59 81.0 74.6 29.97 0.64 0.00 0.00 0.00 0.000
10:36am 224 2 4 43 57 81.0 74.7 29.97 0.64 0.00 0.00 0.00 0.000
10:37am 276 2 4 43 57 81.0 74.7 29.97 0.64 0.00 0.00 0.00 0.000
10:38am 276 1 4 43 58 81.2 74.7 29.97 0.64 0.00 0.00 0.00 0.000
10:39am 276 0 4 43 56 81.2 74.8 29.97 0.64 0.00 0.00 0.00 0.000
10:40am 273 1 4 43 56 81.2 74.9 29.96 0.64 0.00 0.00 0.00 0.000
10:41am 219 6 7 43 56 81.2 75.0 29.96 0.64 0.00 0.00 0.00 0.000
10:42am 230 1 7 42 54 81.2 75.0 29.96 0.64 0.00 0.00 0.00 0.000
10:43am 330 0 7 42 53 81.2 75.2 29.96 0.64 0.00 0.00 0.00 0.000
10:44am 330 1 7 42 52 81.2 75.5 29.96 0.64 0.00 0.00 0.00 0.000
10:45am 332 1 7 42 52 81.4 75.9 29.96 0.64 0.00 0.00 0.00 0.000
10:46am 313 2 2 42 53 81.4 76.4 29.95 0.64 0.00 0.00 0.00 0.000
10:47am 270 1 2 42 51 81.4 76.6 29.95 0.64 0.00 0.00 0.00 0.000
10:47am 230 3 5 42 50 81.4 76.9 29.95 0.64 0.00 0.00 0.00 0.000
10:48am 271 2 6 42 49 81.4 76.9 29.95 0.64 0.00 0.00 0.00 0.000
10:50am 296 3 6 42 49 81.4 77.0 29.95 0.64 0.00 0.00 0.00 0.000
10:51am 245 1 6 42 49 81.4 77.1 29.95 0.64 0.00 0.00 0.00 0.000
10:52am 280 1 6 42 48 81.5 77.2 29.95 0.64 0.00 0.00 0.00 0.000
10:53am 222 4 6 42 46 81.5 77.3 29.95 0.64 0.00 0.00 0.00 0.000
10:54am 238 2 6 42 44 81.5 77.2 29.95 0.64 0.00 0.00 0.00 0.000
10:55am 230 3 6 42 43 81.5 77.3 29.95 0.64 0.00 0.00 0.00 0.000
10:56am 203 6 9 42 43 81.5 77.4 29.95 0.64 0.00 0.00 0.00 0.000
10:57am 232 7 9 42 41 81.5 77.4 29.95 0.64 0.00 0.00 0.00 0.000
10:58am 233 3 9 42 39 81.5 77.4 29.96 0.64 0.00 0.00 0.00 0.000
10:59am 302 3 9 42 40 81.7 77.5 29.95 0.64 0.00 0.00 0.00 0.000
11:00am 288 0 9 42 39 81.7 77.6 29.95 0.64 0.00 0.00 0.00 0.000
11:01am 215 6 6 42 39 81.7 77.9 29.95 0.64 0.00 0.00 0.00 0.000
11:02am 244 2 7 42 39 81.7 78.1 29.96 0.64 0.00 0.00 0.00 0.000
11:03am 219 3 7 42 39 81.7 78.1 29.96 0.64 0.00 0.00 0.00 0.000
11:03am 233 2 7 42 36 81.7 78.1 29.96 0.64 0.00 0.00 0.00 0.000
11:05am 233 1 7 42 33 81.9 78.1 29.95 0.64 0.00 0.00 0.00 0.000
11:06am 233 1 7 42 36 81.9 78.2 29.96 0.64 0.00 0.00 0.00 0.000
11:07am 249 3 7 42 39 81.9 78.4 29.96 0.64 0.00 0.00 0.00 0.000
11:08am 211 6 9 42 41 81.9 78.7 29.96 0.64 0.00 0.00 0.00 0.000
11:09am 234 2 9 42 41 81.9 78.8 29.96 0.64 0.00 0.00 0.00 0.000
11:10am 204 8 9 42 41 81.9 78.8 29.95 0.64 0.00 0.00 0.00 0.000
11:11am 199 7 10 42 42 81.9 78.8 29.95 0.64 0.00 0.00 0.00 0.000
11:12am 182 9 11 42 41 81.9 78.8 29.96 0.64 0.00 0.00 0.00 0.000
11:13am 217 5 11 42 41 82.1 78.7 29.96 0.64 0.00 0.00 0.00 0.000
11:14am 203 9 11 42 41 82.1 78.5 29.96 0.64 0.00 0.00 0.00 0.000
11:15am 199 5 11 42 40 82.1 78.3 29.96 0.64 0.00 0.00 0.00 0.000
11:16am 212 5 10 42 40 82.1 78.2 29.96 0.64 0.00 0.00 0.00 0.000
11:17am 203 4 10 42 40 82.1 78.1 29.96 0.64 0.00 0.00 0.00 0.000
11:18am 213 4 10 42 40 82.1 78.1 29.96 0.64 0.00 0.00 0.00 0.000
11:19am 190 6 10 42 40 82.1 78.2 29.96 0.64 0.00 0.00 0.00 0.000
11:20am 228 1 10 42 40 82.3 78.3 29.96 0.64 0.00 0.00 0.00 0.000
11:21am 207 0 10 42 40 82.3 78.5 29.96 0.64 0.00 0.00 0.00 0.000
11:22am 206 1 10 42 40 82.3 78.7 29.96 0.64 0.00 0.00 0.00 0.000
11:23am 206 2 10 42 39 82.3 78.9 29.96 0.64 0.00 0.00 0.00 0.000
11:24am 188 3 10 41 40 82.3 79.0 29.96 0.64 0.00 0.00 0.00 0.000
11:25am 180 7 10 41 39 82.3 79.2 29.96 0.64 0.00 0.00 0.00 0.000
11:26am 207 6 10 41 39 82.5 79.4 29.96 0.64 0.00 0.00 0.00 0.000
11:27am 186 7 11 41 38 82.5 79.5 29.96 0.64 0.00 0.00 0.00 0.000
11:28am 176 6 11 41 39 82.5 79.5 29.95 0.64 0.00 0.00 0.00 0.000
11:29am 207 8 11 41 38 82.5 79.3 29.95 0.64 0.00 0.00 0.00 0.000
11:30am 202 5 11 41 38 82.5 79.2 29.96 0.64 0.00 0.00 0.00 0.000
11:31am 211 4 6 41 38 82.5 79.1 29.96 0.64 0.00 0.00 0.00 0.000
11:32am 195 4 6 41 38 82.5 79.0 29.96 0.64 0.00 0.00 0.00 0.000
11:33am 192 5 6 41 38 82.5 79.0 29.96 0.64 0.00 0.00 0.00 0.000
11:34am 192 4 6 41 38 82.5 79.0 29.96 0.64 0.00 0.00 0.00 0.000
11:35am 209 6 6 41 38 82.7 78.9 29.96 0.64 0.00 0.00 0.00 0.000
11:36am 209 2 6 41 38 82.7 78.7 29.96 0.64 0.00 0.00 0.00 0.000
11:37am 188 7 7 41 38 82.7 78.6 29.96 0.64 0.00 0.00 0.00 0.000
11:38am 217 6 12 41 38 82.7 78.5 29.97 0.64 0.00 0.00 0.00 0.000
11:39am 198 7 12 41 38 82.7 78.5 29.96 0.64 0.00 0.00 0.00 0.000
11:40am 205 3 12 41 38 82.7 78.5 29.96 0.64 0.00 0.00 0.00 0.000
11:41am 199 8 12 41 39 82.7 78.5 29.96 0.64 0.00 0.00 0.00 0.000
11:42am 215 3 12 41 39 82.7 78.5 29.96 0.64 0.00 0.00 0.00 0.000
11:43am 185 5 12 41 39 82.9 78.7 29.96 0.64 0.00 0.00 0.00 0.000
11:44am 208 4 12 41 39 82.9 78.7 29.96 0.64 0.00 0.00 0.00 0.000
11:45am 197 4 12 41 39 82.9 78.7 29.96 0.64 0.00 0.00 0.00 0.000
11:46am 218 0 5 41 39 82.9 78.7 29.96 0.64 0.00 0.00 0.00 0.000
11:47am 280 1 5 40 40 82.9 78.7 29.96 0.64 0.00 0.00 0.00 0.000
11:48am 281 1 5 40 39 83.0 78.7 29.96 0.64 0.00 0.00 0.00 0.000
11:49am 281 0 5 40 39 83.0 78.7 29.96 0.64 0.00 0.00 0.00 0.000
11:50am 281 0 5 40 39 83.0 78.8 29.96 0.64 0.00 0.00 0.00 0.000
11:51am 281 0 5 40 39 83.0 78.9 29.96 0.64 0.00 0.00 0.00 0.000
11:52am 184 0 5 40 39 83.0 79.0 29.96 0.64 0.00 0.00 0.00 0.000
11:53am 178 3 5 40 39 83.0 79.0 29.96 0.64 0.00 0.00 0.00 0.000
11:54am 178 3 5 40 39 83.0 78.9 29.96 0.64 0.00 0.00 0.00 0.000
11:55am 218 6 6 40 39 83.0 78.8 29.96 0.64 0.00 0.00 0.00 0.000
11:56am 217 1 6 40 38 83.2 78.7 29.96 0.64 0.00 0.00 0.00 0.000
11:57am 205 4 6 40 39 83.2 78.8 29.96 0.64 0.00 0.00 0.00 0.000
11:58am 219 3 6 40 39 83.2 79.0 29.96 0.64 0.00 0.00 0.00 0.000
11:59am 225 1 6 40 39 83.2 79.2 29.95 0.64 0.00 0.00 0.00 0.000
12:00pm 206 5 7 40 39 83.2 79.4 29.95 0.64 0.00 0.00 0.00 0.000
12:01pm 209 4 6 40 38 83.2 79.4 29.96 0.64 0.00 0.00 0.00 0.000
12:02pm 223 1 6 40 38 83.2 79.3 29.96 0.64 0.00 0.00 0.00 0.000
12:03pm 223 0 6 40 38 83.2 79.3 29.96 0.64 0.00 0.00 0.00 0.000
12:04pm 223 0 6 40 38 83.4 79.1 29.96 0.64 0.00 0.00 0.00 0.000
12:05pm 182 4 6 40 38 83.4 79.1 29.96 0.64 0.00 0.00 0.00 0.000
12:06pm 182 3 6 40 38 83.4 79.0 29.96 0.64 0.00 0.00 0.00 0.000
12:07pm 198 3 6 40 38 83.4 79.0 29.96 0.64 0.00 0.00 0.00 0.000
12:08pm 224 2 6 40 39 83.4 78.9 29.96 0.64 0.00 0.00 0.00 0.000
12:09pm 230 0 6 40 39 83.4 78.9 29.96 0.64 0.00 0.00 0.00 0.000
12:10pm 230 0 6 40 38 83.4 79.0 29.96 0.64 0.00 0.00 0.00 0.000
12:11pm 230 0 6 40 38 83.4 79.0 29.96 0.64 0.00 0.00 0.00 0.000
12:12pm 229 0 6 40 38 83.4 79.1 29.96 0.64 0.00 0.00 0.00 0.000
12:13pm 219 2 6 40 37 83.6 79.3 29.96 0.64 0.00 0.00 0.00 0.000
12:14pm 219 1 6 40 37 83.6 79.4 29.96 0.64 0.00 0.00 0.00 0.000
12:15pm 205 4 6 40 39 83.6 79.6 29.96 0.64 0.00 0.00 0.00 0.000
12:16pm 185 4 5 40 38 83.6 79.9 29.96 0.64 0.00 0.00 0.00 0.000
12:17pm 183 4 5 40 38 83.6 79.9 29.96 0.64 0.00 0.00 0.00 0.000
12:18pm 183 1 5 40 37 83.6 79.8 29.96 0.64 0.00 0.00 0.00 0.000
12:19pm 182 2 5 40 36 83.6 79.7 29.96 0.64 0.00 0.00 0.00 0.000
12:20pm 113 3 5 40 37 83.6 79.5 29.96 0.64 0.00 0.00 0.00 0.000
12:20pm 80 3 5 40 37 83.6 79.5 29.96 0.64 0.00 0.00 0.00 0.000
12:22pm 68 4 5 40 37 83.6 79.5 29.96 0.64 0.00 0.00 0.00 0.000
12:23pm 76 2 5 40 37 83.8 79.7 29.96 0.64 0.00 0.00 0.00 0.000
12:24pm 76 0 5 40 36 83.8 79.8 29.96 0.64 0.00 0.00 0.00 0.000
12:24pm 76 0 5 40 37 83.8 80.1 29.96 0.64 0.00 0.00 0.00 0.000
12:26pm 157 3 5 40 36 83.8 80.4 29.96 0.64 0.00 0.00 0.00 0.000
12:27pm 132 0 5 40 37 83.8 80.5 29.95 0.64 0.00 0.00 0.00 0.000
12:28pm 224 7 9 39 37 83.8 80.8 29.95 0.64 0.00 0.00 0.00 0.000
12:29pm 221 6 9 39 37 83.8 80.9 29.95 0.64 0.00 0.00 0.00 0.000
12:30pm 219 6 9 39 37 83.8 80.8 29.95 0.64 0.00 0.00 0.00 0.000
12:31pm 199 1 6 39 36 83.8 80.6 29.95 0.64 0.00 0.00 0.00 0.000
12:32pm 166 5 6 39 37 83.8 80.4 29.95 0.64 0.00 0.00 0.00 0.000
12:33pm 176 5 7 39 36 83.8 80.3 29.95 0.64 0.00 0.00 0.00 0.000
12:34pm 167 4 7 39 37 84.0 80.0 29.95 0.64 0.00 0.00 0.00 0.000
12:35pm 184 3 7 39 37 84.0 79.9 29.95 0.64 0.00 0.00 0.00 0.000
12:36pm 179 3 7 39 37 84.0 79.8 29.95 0.64 0.00 0.00 0.00 0.000
12:37pm 179 1 7 39 37 84.0 79.7 29.95 0.64 0.00 0.00 0.00 0.000
12:38pm 179 0 7 39 37 84.0 79.7 29.95 0.64 0.00 0.00 0.00 0.000
12:39pm 179 0 7 39 37 84.0 79.6 29.95 0.64 0.00 0.00 0.00 0.000
12:40pm 179 0 7 39 37 84.0 79.7 29.95 0.64 0.00 0.00 0.00 0.000
12:41pm 179 0 7 39 37 84.0 79.8 29.95 0.64 0.00 0.00 0.00 0.000
12:42pm 179 0 7 39 37 84.0 80.0 29.96 0.64 0.00 0.00 0.00 0.000
12:43pm 88 4 7 39 36 84.0 80.1 29.95 0.64 0.00 0.00 0.00 0.000
12:44pm 82 3 7 39 37 84.0 80.3 29.96 0.64 0.00 0.00 0.00 0.000
12:45pm 90 2 7 39 37 84.0 80.3 29.96 0.64 0.00 0.00 0.00 0.000
12:46pm 90 1 2 39 36 84.2 80.3 29.96 0.64 0.00 0.00 0.00 0.000
12:47pm 90 0 2 39 37 84.2 80.5 29.96 0.64 0.00 0.00 0.00 0.000
12:48pm 211 1 3 39 37 84.2 80.6 29.95 0.64 0.00 0.00 0.00 0.000
12:49pm 217 3 3 39 37 84.2 80.8 29.96 0.64 0.00 0.00 0.00 0.000
12:50pm 217 5 7 39 37 84.2 81.0 29.96 0.64 0.00 0.00 0.00 0.000
12:51pm 199 3 7 39 36 84.2 81.0 29.96 0.64 0.00 0.00 0.00 0.000
12:52pm 193 9 9 39 36 84.2 81.0 29.96 0.64 0.00 0.00 0.00 0.000
12:53pm 207 3 10 38 37 84.2 80.8 29.95 0.64 0.00 0.00 0.00 0.000
12:54pm 207 3 10 38 37 84.2 80.8 29.95 0.64 0.00 0.00 0.00 0.000
12:55pm 214 3 10 39 37 84.2 80.9 29.96 0.64 0.00 0.00 0.00 0.000
12:56pm 214 5 10 39 37 84.2 81.1 29.96 0.64 0.00 0.00 0.00 0.000
12:57pm 174 4 10 39 38 84.2 81.2 29.96 0.64 0.00 0.00 0.00 0.000
12:58pm 221 1 10 39 37 84.2 81.2 29.96 0.64 0.00 0.00 0.00 0.000
12:59pm 174 6 10 39 37 84.2 81.2 29.96 0.64 0.00 0.00 0.00 0.000
1:00pm 158 2 10 39 36 84.2 81.2 29.96 0.64 0.00 0.00 0.00 0.000
1:01pm 88 4 4 39 36 84.2 81.2 29.96 0.64 0.00 0.00 0.00 0.000
1:02pm 95 1 5 39 36 84.4 81.3 29.96 0.64 0.00 0.00 0.00 0.000
1:03pm 95 0 5 39 36 84.4 81.2 29.95 0.64 0.00 0.00 0.00 0.000
1:04pm 196 4 5 39 36 84.4 81.3 29.95 0.64 0.00 0.00 0.00 0.000
1:05pm 205 3 5 39 36 84.4 81.3 29.95 0.64 0.00 0.00 0.00 0.000
1:06pm 149 4 6 39 37 84.4 81.3 29.95 0.64 0.00 0.00 0.00 0.000
1:07pm 141 1 6 38 37 84.4 81.4 29.95 0.64 0.00 0.00 0.00 0.000
1:08pm 205 6 7 38 38 84.4 81.7 29.95 0.64 0.00 0.00 0.00 0.000
1:09pm 228 4 7 38 37 84.4 81.7 29.95 0.64 0.00 0.00 0.00 0.000
1:10pm 232 2 7 38 36 84.4 81.7 29.95 0.64 0.00 0.00 0.00 0.000
1:11pm 208 3 7 38 36 84.4 81.7 29.95 0.64 0.00 0.00 0.00 0.000
1:11pm 214 8 8 38 37 84.4 81.8 29.95 0.64 0.00 0.00 0.00 0.000
1:13pm 200 9 11 38 37 84.4 81.9 29.95 0.64 0.00 0.00 0.00 0.000
1:14pm 180 6 11 38 36 84.4 81.8 29.95 0.64 0.00 0.00 0.00 0.000
1:15pm 220 5 11 38 37 84.6 81.8 29.95 0.64 0.00 0.00 0.00 0.000
1:16pm 194 3 10 38 37 84.6 81.8 29.95 0.64 0.00 0.00 0.00 0.000
1:17pm 229 4 10 38 37 84.6 81.7 29.95 0.64 0.00 0.00 0.00 0.000
1:18pm 206 3 10 38 36 84.6 81.7 29.95 0.64 0.00 0.00 0.00 0.000
1:19pm 205 0 10 38 36 84.6 81.7 29.95 0.64 0.00 0.00 0.00 0.000
1:20pm 248 3 10 38 37 84.6 81.9 29.95 0.64 0.00 0.00 0.00 0.000
1:21pm 206 3 10 38 36 84.6 81.9 29.95 0.64 0.00 0.00 0.00 0.000
1:22pm 233 5 10 38 36 84.6 82.0 29.95 0.64 0.00 0.00 0.00 0.000
1:23pm 217 3 10 38 35 84.6 82.1 29.95 0.64 0.00 0.00 0.00 0.000
1:24pm 218 0 10 38 36 84.6 82.0 29.95 0.64 0.00 0.00 0.00 0.000
1:25pm 217 1 10 38 36 84.6 82.1 29.95 0.64 0.00 0.00 0.00 0.000
1:26pm 201 2 10 38 35 84.6 82.2 29.94 0.64 0.00 0.00 0.00 0.000
1:27pm 168 4 10 38 36 84.6 82.3 29.95 0.64 0.00 0.00 0.00 0.000
1:28pm 174 4 10 38 36 84.6 82.4 29.94 0.64 0.00 0.00 0.00 0.000
1:29pm 184 5 10 38 35 84.6 82.5 29.94 0.64 0.00 0.00 0.00 0.000
1:30pm 172 0 10 38 36 84.6 82.3 29.94 0.64 0.00 0.00 0.00 0.000
1:31pm 182 3 4 38 36 84.8 82.4 29.94 0.64 0.00 0.00 0.00 0.000
1:32pm 196 2 4 38 36 84.8 82.4 29.94 0.64 0.00 0.00 0.00 0.000
1:33pm 223 3 5 38 35 84.8 82.4 29.94 0.64 0.00 0.00 0.00 0.000
1:34pm 219 4 6 38 35 84.8 82.4 29.94 0.64 0.00 0.00 0.00 0.000
1:35pm 174 4 6 38 35 84.8 82.4 29.94 0.64 0.00 0.00 0.00 0.000
1:36pm 199 2 7 38 36 84.8 82.3 29.94 0.64 0.00 0.00 0.00 0.000
1:37pm 226 2 7 38 37 84.8 82.5 29.94 0.64 0.00 0.00 0.00 0.000
1:38pm 283 2 7 38 36 84.8 82.6 29.94 0.64 0.00 0.00 0.00 0.000
1:39pm 230 3 7 38 36 84.8 82.7 29.94 0.64 0.00 0.00 0.00 0.000
1:40pm 255 2 7 38 35 84.8 82.6 29.94 0.64 0.00 0.00 0.00 0.000
1:41pm 302 3 7 38 36 84.8 82.7 29.94 0.64 0.00 0.00 0.00 0.000
1:42pm 301 1 7 38 36 84.8 82.8 29.94 0.64 0.00 0.00 0.00 0.000
1:43pm 301 0 7 38 36 84.8 83.0 29.94 0.64 0.00 0.00 0.00 0.000
1:44pm 273 0 7 38 37 84.8 83.3 29.94 0.64 0.00 0.00 0.00 0.000
1:45pm 176 4 7 38 37 84.8 83.7 29.94 0.64 0.00 0.00 0.00 0.000
1:46pm 173 9 9 38 36 84.8 83.5 29.94 0.64 0.00 0.00 0.00 0.000
1:47pm 205 6 9 38 35 84.8 83.2 29.94 0.64 0.00 0.00 0.00 0.000
1:48pm 188 4 9 38 35 85.0 82.8 29.94 0.64 0.00 0.00 0.00 0.000
1:49pm 163 4 9 37 36